CW5302 Weather Reports


Display with metric or nautical units.
time (UTC)temp
F
wind
direction
speed
MPH
gust
MPH
rain 1hr
in
rain 24hr
in
rain mn
in
humidity
%
barometer
mb
20260508080323 51 321 0.0 0.0 0.00 0.00 0.00 93 1014.5
20260508075315 51 321 0.0 0.0 0.00 0.00 0.00 92 1014.5
20260508074334 52 321 0.0 0.0 0.00 0.00 0.00 92 1014.4
20260508073347 52 321 0.0 0.0 0.00 0.00 0.00 90 1014.4
20260508072318 52 321 0.0 0.0 0.00 0.00 0.00 90 1014.1
20260508071330 53 321 0.0 0.0 0.00 0.00 0.00 90 1014.1
20260508070326 54 321 0.0 0.0 0.00 0.00 0.00 90 1014.1
20260508065315 54 321 0.0 0.0 0.00 0.00 0.00 89 1014.1
20260508064330 55 321 0.0 0.0 0.00 0.00 0.00 89 1014.2
20260508063347 55 321 0.0 0.0 0.00 0.00 0.00 88 1014.2
20260508062316 56 321 0.0 0.0 0.00 0.00 0.00 87 1014.2
20260508061331 57 321 0.0 0.0 0.00 0.00 0.00 86 1014.1
20260508060329 57 321 0.0 0.0 0.00 0.00 0.00 86 1014.1
20260508055321 58 321 0.0 0.0 0.00 0.00 0.00 85 1014.1
20260508054334 58 321 0.0 0.0 0.00 0.00 0.00 84 1014.0
20260508053348 59 321 0.0 0.0 0.00 0.00 0.00 83 1014.0
20260508052358 60 321 0.0 0.0 0.00 0.00 0.00 83 1014.0
20260508051350 60 321 0.0 0.0 0.00 0.00 0.00 79 1013.8
20260508050324 61 321 0.0 0.0 0.00 0.00 0.00 74 1013.8
20260508045319 62 321 0.0 0.0 0.00 0.00 0.00 71 1013.5
20260508044350 62 321 0.0 0.0 0.00 0.00 0.00 70 1013.5
20260508043320 63 321 0.0 0.0 0.00 0.00 0.00 69 1013.5
20260508042312 64 321 0.0 0.0 0.00 0.00 0.00 69 1013.0
20260508041331 65 321 0.0 0.0 0.00 0.00 0.00 66 1012.9
20260508040321 66 5 0.0 0.0 0.00 0.00 0.00 64 1012.9
20260508035316 67 5 0.0 0.0 0.00 0.00 0.00 63 1012.5
20260508034324 68 5 0.0 3.0 0.00 0.00 0.00 61 1012.1
20260508033320 68 277 0.0 3.0 0.00 0.00 0.00 60 1012.1
20260508032316 68 355 1.0 6.0 0.00 0.00 0.00 60 1011.9
20260508031330 69 340 0.0 0.0 0.00 0.00 0.00 65 1011.8
20260508030320 70 340 0.0 0.0 0.00 0.00 0.00 63 1011.8
20260508025333 72 340 0.0 0.0 0.00 0.00 0.00 63 1011.7
20260508024325 73 340 0.0 0.0 0.00 0.00 0.00 56 1011.7
20260508023317 73 340 0.0 1.0 0.00 0.00 0.00 53 1011.7
20260508022327 74 311 0.0 3.0 0.00 0.00 0.00 56 1011.6
20260508021338 74 309 0.0 3.0 0.00 0.00 0.00 51 1011.7
20260508020330 75 309 0.0 3.0 0.00 0.00 0.00 49 1011.7
20260508015322 78 307 0.0 1.0 0.00 0.00 0.00 46 1011.9
20260508014333 78 306 0.0 3.0 0.00 0.00 0.00 45 1012.0
20260508013326 77 18 0.0 2.0 0.00 0.00 0.00 48 1012.0
20260508012321 77 336 0.0 4.0 0.00 0.00 0.00 46 1012.0
20260508011333 77 327 3.0 5.0 0.00 0.00 0.00 44 1012.3
20260508010326 78 67 0.0 3.0 0.00 0.00 0.00 46 1012.3
20260508005323 78 55 0.0 4.0 0.00 0.00 0.00 47 1012.3
20260508004341 78 329 1.0 4.0 0.00 0.00 0.00 51 1012.4
20260508003352 77 40 0.0 2.0 0.00 0.00 0.00 49 1012.4
20260508002324 76 36 0.0 3.0 0.00 0.00 0.00 48 1012.5
20260508001321 77 144 0.0 3.0 0.00 0.00 0.00 49 1012.5
20260508000315 77 59 0.0 5.0 0.00 0.00 0.00 52 1012.5
20260507235310 76 347 1.0 5.0 0.00 0.00 0.00 49 1012.5
20260507234349 77 325 3.0 7.0 0.00 0.00 0.00 49 1012.7
20260507233343 76 306 2.0 6.0 0.00 0.00 0.00 48 1012.7
20260507232338 76 5 1.0 6.0 0.00 0.00 0.00 49 1012.9
20260507231349 76 360 0.0 3.0 0.00 0.00 0.00 50 1013.0
20260507230320 76 319 3.0 7.0 0.00 0.00 0.00 49 1013.0
20260507225353 75 331 2.0 6.0 0.00 0.00 0.00 51 1013.3
20260507224343 74 285 3.0 7.0 0.00 0.00 0.00 52 1013.5
20260507223334 73 320 1.0 7.0 0.00 0.00 0.00 54 1013.5
20260507222346 73 289 2.0 7.0 0.00 0.00 0.00 55 1013.7
20260507221337 73 360 3.0 6.0 0.00 0.00 0.00 56 1014.0
20260507220329 72 313 2.0 8.0 0.00 0.00 0.00 56 1014.0
20260507215341 71 329 2.0 5.0 0.00 0.00 0.00 60 1014.1
20260507214333 70 131 1.0 5.0 0.00 0.00 0.00 62 1014.3
20260507213328 69 101 1.0 5.0 0.00 0.00 0.00 64 1014.3
20260507212326 68 184 0.0 3.0 0.00 0.00 0.00 64 1014.5
20260507211326 67 248 0.0 4.0 0.00 0.00 0.00 65 1014.6
20260507210335 67 327 2.0 5.0 0.00 0.00 0.00 65 1014.6
20260507205330 67 292 3.0 7.0 0.00 0.00 0.00 67 1015.0
20260507204343 66 267 0.0 5.0 0.00 0.00 0.00 67 1015.1
20260507203356 65 20 2.0 5.0 0.00 0.00 0.00 68 1015.1
20260507202347 65 325 2.0 7.0 0.00 0.00 0.00 69 1015.4
20260507201315 64 245 2.0 5.0 0.00 0.00 0.00 71 1015.6
20260507200352 63 302 1.0 7.0 0.00 0.00 0.00 72 1015.6
20260507195320 63 210 0.0 6.0 0.00 0.00 0.00 73 1015.8
20260507194329 62 333 2.0 6.0 0.00 0.00 0.00 72 1016.0
20260507193345 61 282 0.0 6.0 0.00 0.00 0.00 72 1016.0
20260507192334 61 317 1.0 6.0 0.00 0.00 0.00 75 1016.1
20260507191327 60 242 0.0 5.0 0.00 0.00 0.00 76 1016.2
20260507190319 60 227 0.0 3.0 0.00 0.00 0.00 75 1016.2
20260507185334 59 301 1.0 4.0 0.00 0.00 0.00 76 1016.3
20260507184329 59 313 0.0 4.0 0.00 0.00 0.00 78 1016.4
20260507183326 58 303 0.0 4.0 0.00 0.00 0.00 78 1016.4
20260507182336 58 284 1.0 5.0 0.00 0.00 0.00 77 1016.6
20260507181347 58 346 1.0 5.0 0.00 0.00 0.00 78 1016.6
20260507180359 58 309 0.0 5.0 0.00 0.00 0.00 79 1016.6
20260507175329 58 309 0.0 3.0 0.00 0.00 0.00 78 1016.6
20260507174321 57 325 0.0 5.0 0.00 0.00 0.00 78 1016.6
20260507173334 57 82 0.0 0.0 0.00 0.00 0.00 79 1016.6
20260507172324 57 82 0.0 0.0 0.00 0.00 0.00 78 1016.6
20260507171336 57 76 0.0 1.0 0.00 0.00 0.00 81 1016.6
20260507170329 57 74 0.0 0.0 0.00 0.00 0.00 82 1016.6
20260507165320 57 12 0.0 4.0 0.00 0.00 0.00 79 1016.6
20260507164351 57 286 0.0 3.0 0.00 0.00 0.00 80 1016.7
20260507163322 56 344 0.0 2.0 0.00 0.00 0.00 82 1016.7
20260507162316 55 345 0.0 3.0 0.00 0.00 0.00 83 1016.7
20260507161332 55 346 0.0 1.0 0.00 0.00 0.00 85 1016.7
20260507160348 55 346 0.0 1.0 0.00 0.00 0.00 85 1016.7
20260507155321 54 346 0.0 1.0 0.00 0.00 0.00 87 1016.7
20260507154333 54 347 0.0 2.0 0.00 0.00 0.00 87 1016.7
20260507153323 53 348 1.0 4.0 0.00 0.00 0.00 88 1016.7
20260507152318 53 350 0.0 3.0 0.00 0.00 0.00 89 1016.8
20260507151328 53 349 0.0 3.0 0.00 0.00 0.00 89 1016.7
20260507150337 53 355 0.0 2.0 0.00 0.00 0.00 88 1016.7
20260507145330 53 355 0.0 2.0 0.00 0.00 0.00 89 1016.7
20260507144324 53 351 0.0 2.0 0.00 0.00 0.00 89 1016.7
20260507143335 53 360 0.0 1.0 0.00 0.00 0.00 89 1016.7
20260507142325 53 360 0.0 0.0 0.00 0.00 0.00 89 1016.6
20260507141316 53 360 0.0 0.0 0.00 0.00 0.00 89 1016.6
20260507140340 52 360 0.0 0.0 0.00 0.00 0.00 89 1016.6
20260507135336 52 360 0.0 0.0 0.00 0.00 0.00 89 1016.4
20260507134327 52 360 0.0 0.0 0.00 0.00 0.00 88 1016.4
20260507133339 53 360 0.0 0.0 0.00 0.00 0.00 88 1016.4
20260507132330 53 360 0.0 0.0 0.00 0.00 0.00 87 1016.4
20260507131320 53 360 0.0 0.0 0.00 0.00 0.00 87 1016.4
20260507130334 53 360 0.0 0.0 0.00 0.00 0.00 87 1016.4
20260507125338 53 360 0.0 2.0 0.00 0.00 0.00 86 1016.4
20260507124329 53 5 0.0 2.0 0.00 0.00 0.00 87 1016.4
20260507123340 53 5 0.0 2.0 0.00 0.00 0.00 87 1016.4
20260507122330 53 24 0.0 0.0 0.00 0.00 0.00 86 1016.5
20260507121321 53 24 0.0 0.0 0.00 0.00 0.00 87 1016.6
20260507120336 53 24 0.0 0.0 0.00 0.00 0.00 87 1016.6
20260507115327 53 24 0.0 0.0 0.00 0.00 0.00 87 1016.7
20260507114321 53 24 0.0 0.0 0.00 0.00 0.00 86 1016.8
20260507113334 53 24 0.0 0.0 0.00 0.00 0.00 86 1016.8
20260507112324 53 24 0.0 0.0 0.00 0.00 0.00 86 1017.0
20260507111336 53 24 0.0 0.0 0.00 0.00 0.00 86 1017.0
20260507110325 53 24 0.0 0.0 0.00 0.00 0.00 86 1017.0
20260507105323 53 24 0.0 0.0 0.00 0.00 0.00 86 1017.1
20260507104325 53 24 0.0 0.0 0.00 0.00 0.00 86 1017.1
20260507103316 53 12 0.0 3.0 0.00 0.00 0.00 85 1017.1
20260507102350 54 36 0.0 0.0 0.00 0.00 0.00 86 1017.2
20260507101340 54 16 0.0 0.0 0.00 0.00 0.00 86 1017.2
20260507100335 54 16 0.0 0.0 0.00 0.00 0.00 86 1017.2
20260507095328 54 16 0.0 0.0 0.00 0.00 0.00 86 1017.4
20260507094323 54 16 0.0 3.0 0.00 0.00 0.00 86 1017.5
20260507093340 54 101 0.0 0.0 0.00 0.00 0.00 86 1017.5
20260507092328 54 101 0.0 0.0 0.00 0.00 0.00 86 1017.7
20260507091340 54 101 0.0 0.0 0.00 0.00 0.00 86 1017.7
20260507090330 53 103 0.0 0.0 0.00 0.00 0.00 86 1017.7
20260507085320 54 103 0.0 0.0 0.00 0.00 0.00 86 1017.7
20260507084317 54 105 0.0 0.0 0.00 0.00 0.00 86 1017.8
20260507083328 54 105 0.0 0.0 0.00 0.00 0.00 86 1017.8
20260507082323 54 109 0.0 0.0 0.00 0.00 0.00 87 1017.8
20260507081333 54 48 0.0 0.0 0.00 0.00 0.00 87 1017.8